sat.trackr.live / text

‹ back to catalog

STARLINK-37387

NORAD 68973 · 2026-099Y

PAYLOAD ACTIVE UNKNOWN

§ Identity

Operator
Country
US
Launch date
2026-05-01
Launch site
AFETR
Launch vehicle
Mass (kg)
RCS (m²)

Purposes: comms

External: N2YO · Heavens-Above · Gunter

§ Orbital elements

Epoch: 2026-09-19T19:19:03.562176Z

Period
93.85 min
Inclination
53.1538°
Eccentricity
0.0001998
Mean motion
15.34385154 rev/d
Perigee alt
461.4 km
Apogee alt
464.1 km
Semi-major
6,840.9 km
B*
5.1514e-4
RAAN
78.6282°
Arg perigee
77.3351°
Mean anomaly
282.7874°
Rev number
2,180

§ Raw data

STARLINK-373871 68973U 26099Y   26262.80490234  .00017060  00000+0  51514-3 0  99992 68973  53.1538  78.6282 0001998  77.3351 282.7874 15.34385154 21804

JSON: /api/v1/satellites/68973 · /tle

For live sub-satellite position, see the globe view (requires WebGL).

§ Visibility from observer

Set your observer location to see the next 7 days of passes ≥ 10°. The values pass through the URL so the page stays shareable.

No JS? Fill the form by hand. The geolocation button needs JavaScript.